This is the latest recevied weather packets stored in our database for station/object W9PEM-13. If no packets are shown the sender has not sent any weather packets the latest 10 day(s).
| Time | Temp. | Humidity | Pressure | Rain* | Wind** | Luminosity | Snow |
|---|---|---|---|---|---|---|---|
| 1778083648 | 10° C | 46% | 982.7 hPa | 0 mm | - | 269 W/m² | - |
| 1778083559 | 10° C | 46% | 982.7 hPa | 0 mm | - | 269 W/m² | - |
| 1778083106 | 10° C | 43% | 982.7 hPa | 0 mm | - | 956 W/m² | - |
| 1778082959 | 10° C | 43% | 982.7 hPa | 0 mm | - | 956 W/m² | - |
| 1778082485 | 10.56° C | 44% | 982.6 hPa | 0 mm | - | 181 W/m² | - |
| 1778082359 | 10.56° C | 44% | 982.6 hPa | 0 mm | - | 181 W/m² | - |
| 1778081908 | 10° C | 45% | 982.6 hPa | 0 mm | - | 251 W/m² | - |
| 1778081758 | 10° C | 45% | 982.6 hPa | 0 mm | - | 251 W/m² | - |
| 1778081291 | 10.56° C | 45% | 982.6 hPa | 0 mm | - | 842 W/m² | - |
| 1778081158 | 10.56° C | 45% | 982.6 hPa | 0 mm | - | 842 W/m² | - |
| 1778080649 | 10° C | 46% | 982.5 hPa | 0 mm | - | 168 W/m² | - |
| 1778080559 | 10° C | 46% | 982.5 hPa | 0 mm | - | 168 W/m² | - |
| 1778080067 | 10° C | 44% | 982.5 hPa | 0 mm | - | 659 W/m² | - |
| 1778079959 | 10° C | 44% | 982.5 hPa | 0 mm | - | 659 W/m² | - |
| 1778079448 | 10° C | 44% | 982.6 hPa | 0 mm | - | 647 W/m² | - |
| 1778079358 | 10° C | 44% | 982.6 hPa | 0 mm | - | 647 W/m² | - |
| 1778078837 | 10° C | 45% | 982.6 hPa | 0 mm | - | 723 W/m² | - |
| 1778078758 | 10° C | 45% | 982.6 hPa | 0 mm | - | 723 W/m² | - |
| 1778078212 | 10° C | 44% | 982.5 hPa | 0 mm | - | 318 W/m² | - |
| 1778078158 | 10° C | 44% | 982.5 hPa | 0 mm | - | 318 W/m² | - |
| 1778077602 | 9.44° C | 48% | 982.6 hPa | 0 mm | - | 380 W/m² | - |
| 1778077558 | 9.44° C | 48% | 982.6 hPa | 0 mm | - | 380 W/m² | - |
| 1778077135 | 9.44° C | 51% | 982.4 hPa | 0 mm | - | 596 W/m² | - |
| 1778076958 | 9.44° C | 51% | 982.4 hPa | 0 mm | - | 596 W/m² | - |
| 1778076446 | 9.44° C | 53% | 982.5 hPa | 0 mm | - | 470 W/m² | - |
* Rain latest hour (hover to see other rain measurements)
** Current wind speed in m/s (hover to see current wind gust speed)